Total_Precipitation_Accumulation
1.05 1.05 1.00 1.09 1.07 1.07 1.13 1.10 0.98 0.99 0.97 0.87 0.84 0.85 0.90 0.92 1.09 1.22 1.50 2.03 2.71 3.37 3.56 3.28 2.80 2.50 2.40 2.34 2.26 2.22 2.15 2.16 2.32 2.51 2.41 2.32 2.40 2.43 2.37 2.68 2.93 3.26 3.41
0.88 1.01 1.04 1.13 1.05 1.09 1.16 1.05 1.02 1.04 1.04 0.94 0.88 0.89 0.88 0.94 1.03 1.16 1.30 1.64 2.05 2.71 3.38 3.58 3.22 2.85 2.58 2.55 2.57 2.59 2.36 2.22 2.24 2.44 2.48 2.32 2.31 2.24 2.22 2.40 2.74 3.01 3.43
0.87 0.99 1.06 1.09 1.08 1.09 1.09 1.11 1.15 1.11 1.02 0.95 0.97 0.94 0.90 0.91 1.08 1.19 1.25 1.43 1.51 1.67 2.39 3.17 3.47 3.33 3.05 3.04 2.98 2.81 2.60 2.42 2.26 2.31 2.42 2.32 2.25 2.06 2.15 2.23 2.35 2.49 3.02
0.91 1.13 1.18 1.07 1.12 1.22 1.25 1.29 1.26 1.19 1.12 1.11 1.15 1.10 1.03 1.05 1.19 1.28 1.23 1.21 1.28 1.22 1.48 1.99 2.49 2.89 3.20 3.34 3.33 3.14 2.88 2.64 2.31 2.25 2.27 2.25 2.14 1.95 2.00 2.12 2.18 2.31 2.54
1.09 1.30 1.38 1.24 1.20 1.36 1.36 1.25 1.30 1.37 1.36 1.40 1.29 1.31 1.28 1.28 1.27 1.21 1.18 1.23 1.28 1.30 1.38 1.35 1.59 1.98 2.66 3.21 3.52 3.71 3.36 3.07 2.72 2.48 2.38 2.20 2.05 1.94 1.92 1.97 2.03 2.17 2.25
1.29 1.48 1.62 1.55 1.48 1.61 1.65 1.53 1.66 1.75 1.68 1.73 1.58 1.49 1.43 1.40 1.34 1.33 1.30 1.36 1.47 1.39 1.45 1.41 1.40 1.26 1.66 2.40 3.06 3.57 3.61 3.43 3.12 2.72 2.53 2.17 2.05 1.92 1.84 1.84 1.91 2.06 2.19
1.70 1.84 1.82 2.03 2.08 2.05 2.09 2.07 2.24 2.31 2.05 1.92 2.29 2.23 1.80 1.47 1.33 1.40 1.50 1.55 1.65 1.68 1.66 1.63 1.59 1.37 1.29 1.61 2.26 3.19 3.44 3.35 3.15 2.86 2.74 2.46 2.16 1.95 1.87 1.86 1.91 1.90 2.05
2.07 1.99 2.09 2.33 2.36 2.46 2.55 2.41 2.60 2.75 2.43 2.14 2.63 3.13 2.72 2.22 1.55 1.29 1.40 1.57 1.76 1.80 1.73 1.60 1.61 1.60 1.53 1.59 1.72 2.39 2.98 3.33 3.27 3.10 2.93 2.82 2.38 2.12 1.95 1.91 1.92 1.91 1.89
2.49 2.38 2.34 2.50 2.54 2.62 2.81 2.82 2.78 2.95 2.92 2.57 2.53 3.14 3.16 2.77 2.29 1.69 1.50 1.57 1.77 1.88 1.92 1.87 1.71 1.73 1.65 1.73 1.84 1.73 1.99 2.63 3.15 3.13 3.00 2.91 2.67 2.36 2.05 1.99 1.99 1.91 1.76
2.65 2.58 2.54 2.64 2.68 2.66 2.76 2.80 2.79 3.09 3.35 3.14 2.82 2.58 2.54 2.58 2.63 2.27 1.84 1.67 1.78 1.87 2.01 1.93 1.96 2.02 1.98 1.94 1.93 1.68 1.54 1.75 2.30 2.76 2.90 2.97 2.83 2.55 2.26 2.15 2.19 2.04 1.92
2.45 2.32 2.42 2.58 2.61 2.63 2.65 2.81 2.93 3.21 3.28 3.22 3.12 2.96 2.75 2.56 2.18 2.27 2.25 2.01 1.94 1.84 1.93 2.09 2.17 2.23 2.17 2.29 2.37 1.86 1.50 1.43 1.76 2.25 2.70 2.93 3.02 2.96 2.68 2.40 2.30 2.27 2.24
2.37 2.21 2.26 2.34 2.43 2.49 2.47 2.52 2.71 2.90 3.16 3.31 3.23 3.06 3.02 2.94 2.72 2.51 2.20 2.09 2.21 2.08 1.94 1.93 2.02 2.10 2.26 2.39 2.28 2.05 1.57 1.41 1.53 1.69 2.01 2.50 2.87 3.13 3.07 2.90 2.71 2.57 2.57
2.34 2.31 2.22 2.23 2.26 2.30 2.39 2.57 2.58 2.66 2.86 3.08 3.11 3.05 3.04 2.89 2.81 2.78 2.50 2.14 2.10 2.03 1.96 1.92 1.89 1.95 2.03 2.15 2.17 2.09 1.65 1.53 1.44 1.41 1.44 1.59 2.01 2.55 2.99 3.19 3.15 2.93 2.93
1.92 1.91 1.96 2.06 2.16 2.22 2.30 2.46 2.53 2.54 2.60 2.66 2.69 2.89 3.01 2.89 2.69 2.59 2.58 2.62 2.36 2.15 1.99 1.91 1.86 1.84 1.89 1.89 2.02 2.04 1.59 1.47 1.38 1.29 1.23 1.14 1.27 1.58 2.10 2.52 2.64 2.73 2.95
1.52 1.53 1.56 1.72 1.91 2.03 2.08 2.20 2.36 2.35 2.42 2.43 2.50 2.57 2.60 2.68 2.57 2.38 2.33 2.43 2.56 2.36 2.20 2.03 1.85 1.67 1.72 1.69 1.77 1.54 1.46 1.46 1.39 1.27 1.14 1.04 1.00 1.11 1.40 1.77 1.95 1.89 1.96
1.44 1.50 1.52 1.54 1.65 1.73 1.84 1.99 2.11 2.20 2.25 2.22 2.20 2.27 2.33 2.39 2.40 2.35 2.33 2.35 2.36 2.34 2.24 2.01 1.73 1.50 1.55 1.62 1.79 1.52 1.56 1.74 1.59 1.37 1.12 1.05 1.02 1.00 1.08 1.22 1.33 1.27 1.22
1.48 1.51 1.54 1.57 1.57 1.63 1.68 1.77 1.89 2.03 2.04 2.04 1.91 1.93 2.07 2.16 2.37 2.40 2.35 2.32 2.31 2.24 2.12 2.01 1.76 1.56 1.53 1.64 1.72 1.59 1.60 1.65 1.55 1.45 1.22 1.10 1.00 1.05 1.08 1.11 1.19 1.12 0.98
1.36 1.40 1.51 1.46 1.44 1.49 1.56 1.67 1.75 1.79 1.85 1.81 1.70 1.73 1.84 1.92 2.07 2.19 2.29 2.20 2.20 2.18 2.17 2.13 1.91 1.70 1.63 1.64 1.72 1.68 1.56 1.53 1.53 1.58 1.37 1.23 1.11 1.03 1.09 1.08 1.18 1.23 1.14
1.32 1.39 1.50 1.58 1.48 1.38 1.46 1.54 1.59 1.60 1.59 1.51 1.49 1.55 1.62 1.69 1.80 1.91 2.01 2.10 2.11 2.07 2.16 2.15 1.96 1.77 1.62 1.57 1.63 1.57 1.53 1.59 1.48 1.55 1.48 1.33 1.26 1.15 1.13 1.12 1.12 1.22 1.23
1.18 1.21 1.33 1.43 1.46 1.40 1.34 1.33 1.34 1.49 1.48 1.38 1.26 1.25 1.29 1.32 1.44 1.57 1.68 1.84 1.99 2.11 2.18 2.22 2.07 1.83 1.65 1.59 1.65 1.70 1.68 1.58 1.57 1.46 1.47 1.44 1.42 1.35 1.24 1.21 1.11 1.11 1.20
1.02 1.08 1.23 1.39 1.45 1.43 1.43 1.41 1.31 1.34 1.40 1.41 1.34 1.21 1.10 1.10 1.24 1.32 1.40 1.65 1.85 2.00 2.12 2.18 2.09 1.92 1.75 1.66 1.62 1.63 1.69 1.76 1.75 1.58 1.52 1.44 1.39 1.24 1.11 1.12 1.11 1.05 1.04
0.94 0.95 1.04 1.18 1.32 1.30 1.48 1.53 1.42 1.28 1.27 1.29 1.29 1.27 1.25 1.19 1.07 1.04 1.12 1.28 1.53 1.72 1.88 1.99 2.01 1.84 1.66 1.63 1.68 1.71 1.70 1.75 1.79 1.63 1.57 1.62 1.56 1.42 1.25 1.11 1.17 1.09 1.03
0.91 0.91 0.99 1.13 1.28 1.47 1.54 1.36 1.43 1.37 1.29 1.29 1.24 1.24 1.27 1.24 1.29 1.13 1.08 1.08 1.10 1.29 1.54 1.75 1.77 1.68 1.73 1.66 1.63 1.60 1.59 1.58 1.59 1.61 1.61 1.63 1.60 1.47 1.30 1.22 1.29 1.22 1.15
0.91 0.94 1.01 1.10 1.18 1.41 1.50 1.31 1.50 1.52 1.48 1.42 1.36 1.37 1.41 1.42 1.35 1.46 1.40 1.26 1.15 1.13 1.25 1.20 1.27 1.56 1.69 1.74 1.74 1.74 1.77 1.67 1.58 1.58 1.51 1.53 1.45 1.38 1.26 1.18 1.24 1.16 1.10
0.89 0.92 0.92 0.95 0.97 1.08 1.24 1.18 1.32 1.44 1.54 1.53 1.41 1.37 1.39 1.38 1.60 1.68 1.53 1.44 1.32 1.23 1.42 1.46 1.46 1.53 1.62 1.63 1.61 1.66 1.72 1.67 1.59 1.52 1.42 1.31 1.25 1.33 1.37 1.27 1.22 1.28 1.22
0.94 0.87 0.84 0.83 0.85 0.90 1.10 0.99 1.12 1.19 1.35 1.50 1.48 1.41 1.56 1.48 1.51 1.48 1.36 1.51 1.45 1.31 1.23 1.21 1.21 1.28 1.31 1.37 1.44 1.41 1.54 1.57 1.50 1.52 1.37 1.30 1.25 1.32 1.37 1.27 1.15 1.13 1.18